EW4939 Weather Reports


Display with metric or nautical units.
time (UTC)temp
F
wind
direction
speed
MPH
gust
MPH
rain 1hr
in
rain 24hr
in
rain mn
in
humidity
%
barometer
mb
20260901123952 78 162 1.0 1.0 0.00 0.00 0.00 84 1019.1
20260901123447 77 140 0.0 2.0 0.00 0.00 0.00 85 1019.2
20260901122946 77 176 1.0 2.0 0.00 0.00 0.00 85 1019.3
20260901122444 77 156 1.0 2.0 0.00 0.00 0.00 86 1019.2
20260901121945 76 178 1.0 1.0 0.00 0.00 0.00 86 1019.2
20260901121440 76 155 1.0 1.0 0.00 0.00 0.00 87 1019.1
20260901120935 76 155 1.0 2.0 0.00 0.00 0.00 87 1019.2
20260901120434 76 155 0.0 1.0 0.00 0.00 0.00 87 1019.0
20260901115930 75 187 1.0 1.0 0.00 0.00 0.00 88 1019.0
20260901115430 75 187 1.0 2.0 0.00 0.00 0.00 88 1018.9
20260901114928 75 168 1.0 1.0 0.00 0.00 0.00 88 1018.6
20260901114423 75 178 1.0 2.0 0.00 0.00 0.00 88 1018.7
20260901113921 75 154 1.0 1.0 0.00 0.00 0.00 88 1018.5
20260901113420 75 178 0.0 1.0 0.00 0.00 0.00 89 1018.6
20260901112916 75 178 0.0 1.0 0.00 0.00 0.00 88 1018.4
20260901112412 75 186 0.0 1.0 0.00 0.00 0.00 89 1018.5
20260901111911 74 185 0.0 1.0 0.00 0.00 0.00 90 1018.3
20260901111410 74 186 0.0 1.0 0.00 0.00 0.00 90 1018.4
20260901110909 74 186 1.0 1.0 0.00 0.00 0.00 91 1018.2
20260901110405 74 186 1.0 1.0 0.00 0.00 0.00 90 1018.1
20260901105900 75 186 0.0 1.0 0.00 0.00 0.00 89 1018.2
20260901105356 75 186 0.0 0.0 0.00 0.00 0.00 88 1018.0
20260901104852 75 180 1.0 1.0 0.00 0.00 0.00 89 1018.1
20260901104347 75 180 0.0 1.0 0.00 0.00 0.00 89 1018.2
20260901103843 75 180 1.0 1.0 0.00 0.00 0.00 89 1018.2
20260901103342 75 180 0.0 0.0 0.00 0.00 0.00 88 1018.0
20260901102837 75 180 0.0 1.0 0.00 0.00 0.00 88 1017.8
20260901102337 75 180 1.0 1.0 0.00 0.00 0.00 88 1018.0
20260901101833 75 161 0.0 1.0 0.00 0.00 0.00 89 1018.0
20260901101333 75 148 0.0 2.0 0.00 0.00 0.00 89 1017.7
20260901100832 75 148 1.0 1.0 0.00 0.00 0.00 90 1017.9
20260901100327 74 148 0.0 1.0 0.00 0.00 0.00 91 1017.9
20260901095826 74 148 1.0 1.0 0.00 0.00 0.00 92 1017.7
20260901095324 74 147 0.0 1.0 0.00 0.00 0.00 92 1017.8
20260901094818 73 147 0.0 0.0 0.00 0.00 0.00 94 1017.7
20260901094313 73 147 0.0 0.0 0.00 0.00 0.00 94 1017.8
20260901093808 73 147 0.0 0.0 0.00 0.00 0.00 94 1017.9
20260901093307 73 147 0.0 0.0 0.00 0.00 0.00 94 1017.8
20260901092803 73 147 0.0 0.0 0.00 0.00 0.00 95 1017.9
20260901092259 73 147 0.0 0.0 0.00 0.00 0.00 94 1017.8
20260901091754 73 147 0.0 0.0 0.00 0.00 0.00 94 1017.6
20260901091249 73 147 0.0 0.0 0.00 0.00 0.00 93 1017.6
20260901090744 73 147 0.0 1.0 0.00 0.00 0.00 93 1017.7
20260901090239 73 147 0.0 1.0 0.00 0.00 0.00 95 1017.6
20260901085735 73 147 0.0 0.0 0.00 0.00 0.00 95 1017.6
20260901085230 73 147 0.0 0.0 0.00 0.00 0.00 95 1017.4
20260901084727 73 147 0.0 0.0 0.00 0.00 0.00 95 1017.5
20260901084223 73 147 0.0 0.0 0.00 0.00 0.00 94 1017.4
20260901083723 73 147 0.0 0.0 0.00 0.00 0.00 94 1017.4
20260901083222 73 147 0.0 0.0 0.00 0.00 0.00 94 1017.4
20260901082721 73 147 0.0 0.0 0.00 0.00 0.00 94 1017.3
20260901082216 73 147 0.0 0.0 0.00 0.00 0.00 94 1017.3
20260901081712 73 147 0.0 0.0 0.00 0.00 0.00 93 1017.3
20260901081211 74 147 0.0 0.0 0.00 0.00 0.00 93 1017.3
20260901080706 74 147 0.0 0.0 0.00 0.00 0.00 93 1017.4
20260901080205 74 147 0.0 0.0 0.00 0.00 0.00 92 1017.5
20260901075700 74 147 0.0 0.0 0.00 0.00 0.00 91 1017.6
20260901075200 75 147 0.0 0.0 0.00 0.00 0.00 91 1017.3
20260901074700 75 147 0.0 0.0 0.00 0.00 0.00 91 1017.4
20260901074155 75 147 0.0 0.0 0.00 0.00 0.00 90 1017.3
20260901073651 75 147 0.0 0.0 0.00 0.00 0.00 90 1017.3
20260901073147 76 147 0.0 0.0 0.00 0.00 0.00 89 1017.2
20260901072642 76 147 0.0 0.0 0.00 0.00 0.00 88 1017.2
20260901072136 76 147 0.0 0.0 0.00 0.00 0.00 88 1017.3
20260901071631 76 147 0.0 0.0 0.00 0.00 0.00 88 1017.3
20260901071130 77 147 0.0 0.0 0.00 0.00 0.00 87 1017.3
20260901070625 77 147 0.0 0.0 0.00 0.00 0.00 86 1017.1
20260901070121 78 147 0.0 0.0 0.00 0.00 0.00 85 1017.2
20260901065615 79 147 0.0 0.0 0.00 0.00 0.00 83 1017.0
20260901065115 80 178 1.0 1.0 0.00 0.00 0.00 80 1016.9
20260901064612 79 188 1.0 1.0 0.00 0.00 0.00 81 1017.0
20260901064108 79 188 0.0 1.0 0.00 0.00 0.00 80 1017.0
20260901063605 79 159 1.0 2.0 0.00 0.00 0.00 81 1016.7
20260901063100 79 160 1.0 2.0 0.00 0.00 0.00 82 1016.6
20260901062556 79 183 2.0 2.0 0.00 0.00 0.00 82 1016.6
20260901062052 79 179 1.0 2.0 0.00 0.00 0.00 82 1016.8
20260901061548 79 186 1.0 2.0 0.00 0.00 0.00 83 1016.7
20260901061043 78 162 1.0 2.0 0.00 0.00 0.00 84 1016.8
20260901060542 79 180 1.0 2.0 0.00 0.00 0.00 84 1016.8
20260901060037 78 174 1.0 2.0 0.00 0.00 0.00 84 1017.0
20260901055533 79 163 1.0 2.0 0.00 0.00 0.00 84 1017.1
20260901055030 79 161 1.0 2.0 0.00 0.00 0.00 84 1017.1
20260901054527 79 169 1.0 2.0 0.00 0.00 0.00 83 1017.2
20260901054022 79 155 1.0 2.0 0.00 0.00 0.00 84 1017.2
20260901053518 79 166 1.0 2.0 0.00 0.00 0.00 84 1017.3
20260901053014 79 167 1.0 1.0 0.00 0.00 0.00 83 1017.4
20260901052514 79 162 1.0 2.0 0.00 0.00 0.00 83 1017.3
20260901052014 79 177 1.0 2.0 0.00 0.00 0.00 83 1017.5
20260901051509 79 160 1.0 2.0 0.00 0.00 0.00 82 1017.4
20260901051008 80 183 2.0 2.0 0.00 0.00 0.00 82 1017.5
20260901050503 80 192 2.0 2.0 0.00 0.00 0.00 82 1017.5
20260901045958 80 166 1.0 2.0 0.00 0.00 0.00 82 1017.5
20260901045454 80 186 2.0 3.0 0.00 0.00 0.00 82 1017.4
20260901044954 80 169 1.0 2.0 0.00 0.00 0.00 82 1017.6
20260901044449 80 166 1.0 2.0 0.00 0.00 0.00 81 1017.7
20260901043945 80 173 1.0 2.0 0.00 0.00 0.00 81 1017.8
20260901043442 80 176 1.0 1.0 0.00 0.00 0.00 81 1017.8
20260901042941 80 175 1.0 2.0 0.00 0.00 0.00 81 1017.8
20260901042441 80 159 2.0 2.0 0.00 0.00 0.00 81 1017.8
20260901041936 80 179 1.0 2.0 0.00 0.00 0.00 81 1017.8
20260901041432 80 156 1.0 1.0 0.00 0.00 0.00 80 1017.8
20260901040931 80 183 1.0 1.0 0.00 0.00 0.00 80 1018.0
20260901040426 81 169 1.0 1.0 0.00 0.00 0.00 80 1017.9
20260901035925 81 170 1.0 1.0 0.00 0.00 0.00 80 1017.9
20260901035424 81 176 1.0 1.0 0.00 0.00 0.00 80 1017.8
20260901034922 81 166 1.0 1.0 0.00 0.00 0.00 79 1018.1
20260901034418 81 170 1.0 1.0 0.00 0.00 0.00 80 1018.1
20260901033913 81 171 1.0 1.0 0.00 0.00 0.00 80 1018.0
20260901033412 81 178 1.0 2.0 0.00 0.00 0.00 79 1018.0
20260901032910 81 186 0.0 0.0 0.00 0.00 0.00 79 1017.9
20260901032410 80 184 0.0 0.0 0.00 0.00 0.00 80 1018.2
20260901031905 80 184 0.0 0.0 0.00 0.00 0.00 81 1018.1
20260901031401 80 180 0.0 0.0 0.00 0.00 0.00 81 1018.2
20260901030900 79 180 0.0 0.0 0.00 0.00 0.00 82 1018.0
20260901030356 78 180 0.0 0.0 0.00 0.00 0.00 84 1018.1
20260901025854 78 180 0.0 0.0 0.00 0.00 0.00 85 1018.4
20260901025350 79 180 0.0 0.0 0.00 0.00 0.00 85 1018.1
20260901024844 79 180 0.0 0.0 0.00 0.00 0.00 83 1018.2
20260901024344 79 180 0.0 0.0 0.00 0.00 0.00 83 1018.1
20260901023842 79 180 0.0 1.0 0.00 0.00 0.00 83 1018.2
20260901023337 79 180 1.0 1.0 0.00 0.00 0.00 84 1018.2
20260901022832 78 180 0.0 1.0 0.00 0.00 0.00 85 1018.2
20260901022328 79 180 0.0 1.0 0.00 0.00 0.00 85 1018.3
20260901021824 79 180 1.0 1.0 0.00 0.00 0.00 84 1018.2
20260901021319 79 179 0.0 1.0 0.00 0.00 0.00 84 1018.0
20260901020814 79 180 1.0 1.0 0.00 0.00 0.00 84 1018.0
20260901020310 79 178 0.0 0.0 0.00 0.00 0.00 84 1018.0
20260901015809 79 178 0.0 1.0 0.00 0.00 0.00 85 1018.1
20260901015306 79 178 0.0 1.0 0.00 0.00 0.00 84 1018.2
20260901014805 79 178 0.0 1.0 0.00 0.00 0.00 84 1018.0
20260901014300 79 178 0.0 0.0 0.00 0.00 0.00 84 1018.0
20260901013756 80 178 0.0 0.0 0.00 0.00 0.00 83 1018.0
20260901013252 80 178 0.0 0.0 0.00 0.00 0.00 83 1017.7
20260901012747 80 178 0.0 0.0 0.00 0.00 0.00 83 1017.9
20260901012247 80 178 0.0 0.0 0.00 0.00 0.00 83 1017.9
20260901011743 80 178 0.0 0.0 0.00 0.00 0.00 83 1017.8
20260901011238 80 178 0.0 1.0 0.00 0.00 0.00 82 1017.7
20260901010732 80 178 0.0 0.0 0.00 0.00 0.00 82 1017.7
20260901010227 80 178 0.0 1.0 0.00 0.00 0.00 82 1017.6
20260901005725 81 178 0.0 1.0 0.00 0.00 0.00 81 1017.7
20260901005221 81 178 0.0 0.0 0.00 0.00 0.00 81 1017.6
20260901004721 81 178 0.0 0.0 0.00 0.00 0.00 80 1017.6
20260901004215 82 178 0.0 0.0 0.00 0.00 0.00 80 1017.5
20260901003715 82 178 0.0 0.0 0.00 0.00 0.00 79 1017.4
20260901003210 82 178 0.0 0.0 0.00 0.00 0.00 79 1017.3
20260901002708 82 178 0.0 0.0 0.00 0.00 0.00 80 1017.2
20260901002203 84 178 0.0 0.0 0.00 0.00 0.00 77 1017.1
20260901001659 85 178 0.0 0.0 0.00 0.00 0.00 73 1017.3
20260901001154 86 178 0.0 0.0 0.00 0.00 0.00 69 1017.0
20260901000650 87 191 0.0 1.0 0.00 0.00 0.00 69 1017.1
20260901000145 87 187 0.0 1.0 0.00 0.00 0.00 67 1016.9
20260831235643 87 203 0.0 1.0 0.00 0.00 0.00 67 1017.0
20260831235140 87 259 0.0 1.0 0.00 0.00 0.00 67 1017.0
20260831234638 88 151 0.0 2.0 0.00 0.00 0.00 67 1016.8
20260831234134 88 175 0.0 1.0 0.00 0.00 0.00 65 1016.8
20260831233629 88 175 0.0 2.0 0.00 0.00 0.00 64 1016.7
20260831233125 88 163 1.0 2.0 0.00 0.00 0.00 65 1016.6
20260831232620 89 201 1.0 1.0 0.00 0.00 0.00 64 1016.6
20260831232116 89 193 0.0 2.0 0.00 0.00 0.00 64 1016.7
20260831231612 89 183 1.0 4.0 0.00 0.00 0.00 63 1016.5
20260831231108 89 171 1.0 2.0 0.00 0.00 0.00 62 1016.3
20260831230603 89 184 3.0 3.0 0.00 0.00 0.00 62 1016.4
20260831225558 89 170 3.0 4.0 0.00 0.00 0.00 61 1016.7
20260831225058 90 174 3.0 3.0 0.00 0.00 0.00 61 1016.6
20260831224554 90 155 0.0 1.0 0.00 0.00 0.00 61 1016.6
20260831224049 90 198 1.0 4.0 0.00 0.00 0.00 60 1016.8
20260831223545 90 173 4.0 4.0 0.00 0.00 0.00 58 1016.7
20260831223041 91 236 0.0 2.0 0.00 0.00 0.00 58 1016.7
20260831222537 91 198 3.0 3.0 0.00 0.00 0.00 57 1016.8
20260831222036 91 202 2.0 3.0 0.00 0.00 0.00 57 1017.1
20260831221532 91 191 1.0 4.0 0.00 0.00 0.00 57 1017.2
20260831221027 91 213 2.0 4.0 0.00 0.00 0.00 56 1017.1
20260831220522 91 268 1.0 3.0 0.00 0.00 0.00 56 1017.2
20260831220018 92 195 1.0 2.0 0.00 0.00 0.00 55 1017.2
20260831215513 92 208 1.0 2.0 0.00 0.00 0.00 55 1017.3
20260831215009 92 178 2.0 6.0 0.00 0.00 0.00 54 1017.3
20260831214506 92 164 2.0 3.0 0.00 0.00 0.00 54 1017.5
20260831214002 93 191 1.0 2.0 0.00 0.00 0.00 53 1017.4
20260831213458 93 236 0.0 2.0 0.00 0.00 0.00 54 1017.4
20260831212958 93 264 1.0 2.0 0.00 0.00 0.00 54 1017.3
20260831212455 93 222 1.0 2.0 0.00 0.00 0.00 54 1017.6
20260831211954 93 265 0.0 1.0 0.00 0.00 0.00 53 1017.6
20260831211449 94 224 1.0 2.0 0.00 0.00 0.00 52 1017.5
20260831210948 94 31 0.0 2.0 0.00 0.00 0.00 52 1017.7
20260831210444 93 235 1.0 2.0 0.00 0.00 0.00 52 1017.7
20260831205939 94 268 1.0 3.0 0.00 0.00 0.00 52 1017.7
20260831205435 94 340 1.0 3.0 0.00 0.00 0.00 51 1017.8
20260831204931 94 285 1.0 2.0 0.00 0.00 0.00 52 1017.6
20260831204430 94 278 0.0 2.0 0.00 0.00 0.00 51 1017.7
20260831203929 94 218 0.0 2.0 0.00 0.00 0.00 51 1017.8
20260831203424 94 297 1.0 2.0 0.00 0.00 0.00 51 1017.7
20260831202922 94 340 2.0 2.0 0.00 0.00 0.00 50 1017.8
20260831202418 94 339 2.0 4.0 0.00 0.00 0.00 50 1018.1
20260831201917 94 212 0.0 2.0 0.00 0.00 0.00 50 1017.8
20260831201416 94 325 1.0 2.0 0.00 0.00 0.00 53 1017.8
20260831200912 94 215 4.0 4.0 0.00 0.00 0.00 51 1017.9
20260831200407 94 199 1.0 2.0 0.00 0.00 0.00 51 1018.1
20260831195902 93 313 2.0 3.0 0.00 0.00 0.00 53 1018.0
20260831195357 92 331 2.0 3.0 0.00 0.00 0.00 54 1018.2
20260831194853 93 233 1.0 2.0 0.00 0.00 0.00 54 1018.4
20260831194348 93 64 0.0 3.0 0.00 0.00 0.00 55 1018.4
20260831193847 92 14 1.0 3.0 0.00 0.00 0.00 55 1018.4
20260831193343 93 337 1.0 4.0 0.00 0.00 0.00 56 1018.7
20260831192838 93 287 2.0 3.0 0.00 0.00 0.00 54 1018.5
20260831192338 93 6 2.0 2.0 0.00 0.00 0.00 55 1018.6
20260831191834 94 205 2.0 3.0 0.00 0.00 0.00 51 1018.7
20260831191330 94 332 1.0 1.0 0.00 0.00 0.00 53 1018.7
20260831190825 93 301 2.0 3.0 0.00 0.00 0.00 55 1018.5
20260831190325 92 303 1.0 2.0 0.00 0.00 0.00 59 1018.9
20260831185825 91 164 2.0 3.0 0.00 0.00 0.00 60 1018.8
20260831185320 90 168 4.0 6.0 0.00 0.00 0.00 60 1018.9
20260831184819 90 209 2.0 3.0 0.00 0.00 0.00 61 1018.9
20260831184315 91 215 1.0 3.0 0.00 0.00 0.00 59 1018.8
20260831183810 91 181 1.0 7.0 0.00 0.00 0.00 58 1018.9
20260831183309 89 194 0.0 2.0 0.00 0.00 0.00 61 1018.9
20260831182809 89 203 2.0 3.0 0.00 0.00 0.00 60 1019.1
20260831182309 90 196 1.0 2.0 0.00 0.00 0.00 59 1019.0
20260831181805 91 194 1.0 4.0 0.00 0.00 0.00 58 1019.0
20260831181305 91 314 1.0 2.0 0.00 0.00 0.00 58 1018.9
20260831180800 92 299 1.0 3.0 0.00 0.00 0.00 60 1018.9
20260831180255 91 330 2.0 2.0 0.00 0.00 0.00 61 1019.2
20260831175754 90 37 1.0 2.0 0.00 0.00 0.00 61 1019.2
20260831175251 90 37 2.0 3.0 0.00 0.00 0.00 60 1019.2
20260831174746 90 216 2.0 7.0 0.00 0.00 0.00 61 1019.4
20260831174242 90 199 2.0 3.0 0.00 0.00 0.00 65 1019.4
20260831173740 90 216 3.0 3.0 0.00 0.00 0.00 64 1019.1
20260831173235 89 137 1.0 4.0 0.00 0.00 0.00 65 1019.4
20260831172730 90 340 1.0 4.0 0.00 0.00 0.00 66 1019.4
20260831172225 89 307 1.0 4.0 0.00 0.00 0.00 65 1019.4
20260831171720 89 252 0.0 4.0 0.00 0.00 0.00 65 1019.5
20260831171218 88 253 1.0 2.0 0.00 0.00 0.00 66 1019.4
20260831170714 88 289 0.0 1.0 0.00 0.00 0.00 69 1019.4
20260831170210 88 207 0.0 3.0 0.00 0.00 0.00 69 1019.4
20260831165706 88 276 2.0 3.0 0.00 0.00 0.00 69 1019.4
20260831165202 87 207 0.0 3.0 0.00 0.00 0.00 71 1019.5
20260831164658 87 189 2.0 3.0 0.00 0.00 0.00 70 1019.4
20260831164154 87 204 1.0 4.0 0.00 0.00 0.00 70 1019.6
20260831163648 88 350 1.0 2.0 0.00 0.00 0.00 70 1019.7
20260831163144 88 252 1.0 4.0 0.00 0.00 0.00 69 1019.7
20260831162643 88 178 2.0 3.0 0.00 0.00 0.00 69 1019.7
20260831162141 87 36 1.0 2.0 0.00 0.00 0.00 71 1019.7
20260831161637 87 190 1.0 1.0 0.00 0.00 0.00 71 1019.7
20260831161134 87 297 0.0 3.0 0.00 0.00 0.00 70 1019.5
20260831160633 86 294 0.0 2.0 0.00 0.00 0.00 73 1019.8
20260831160128 86 271 1.0 1.0 0.00 0.00 0.00 71 1019.6
20260831155627 87 256 1.0 2.0 0.00 0.00 0.00 71 1019.6
20260831155123 86 313 1.0 2.0 0.00 0.00 0.00 71 1019.5
20260831154620 86 93 1.0 2.0 0.00 0.00 0.00 73 1019.5
20260831154120 86 200 1.0 4.0 0.00 0.00 0.00 72 1019.7
20260831153619 86 136 1.0 2.0 0.00 0.00 0.00 72 1019.5
20260831153116 85 160 4.0 4.0 0.00 0.00 0.00 71 1019.5
20260831152611 85 248 1.0 4.0 0.00 0.00 0.00 72 1019.5
20260831152107 85 176 1.0 3.0 0.00 0.00 0.00 73 1019.5
20260831151606 84 76 0.0 3.0 0.00 0.00 0.00 75 1019.7
20260831151100 83 323 2.0 2.0 0.00 0.00 0.00 75 1019.8
20260831150555 83 194 1.0 1.0 0.00 0.00 0.00 76 1019.6
20260831150051 83 195 2.0 2.0 0.00 0.00 0.00 76 1019.6
20260831145545 83 190 0.0 1.0 0.00 0.00 0.00 76 1019.7
20260831145042 83 199 0.0 1.0 0.00 0.00 0.00 75 1019.4
20260831144537 83 174 0.0 2.0 0.00 0.00 0.00 75 1019.5
20260831144032 82 174 3.0 3.0 0.00 0.00 0.00 75 1019.5
20260831143527 82 161 0.0 2.0 0.00 0.00 0.00 76 1019.4
20260831143023 81 212 1.0 1.0 0.00 0.00 0.00 76 1019.4
20260831142519 81 172 2.0 2.0 0.00 0.00 0.00 77 1019.5
20260831142014 81 155 0.0 2.0 0.00 0.00 0.00 77 1019.5
20260831141513 81 154 0.0 2.0 0.00 0.00 0.00 77 1019.5
20260831141009 80 266 0.0 1.0 0.00 0.00 0.00 78 1019.2
20260831140508 80 196 1.0 1.0 0.00 0.00 0.00 78 1019.2
20260831140008 80 261 0.0 0.0 0.00 0.00 0.00 80 1019.2
20260831135506 80 292 0.0 1.0 0.00 0.00 0.00 79 1019.4
20260831135000 80 294 0.0 1.0 0.00 0.00 0.00 80 1019.5
20260831134457 79 272 0.0 1.0 0.00 0.00 0.00 80 1019.4
20260831133957 79 193 0.0 1.0 0.00 0.00 0.00 80 1019.4
20260831133457 78 196 0.0 0.0 0.00 0.00 0.00 84 1019.4
20260831132952 78 47 0.0 0.0 0.00 0.00 0.00 85 1019.5
20260831132448 78 49 0.0 0.0 0.00 0.00 0.00 86 1019.5
20260831131947 77 171 0.0 0.0 0.00 0.00 0.00 87 1019.4
20260831131442 77 171 0.0 0.0 0.00 0.00 0.00 87 1019.3
20260831130938 77 171 0.0 0.0 0.00 0.00 0.00 87 1019.2
20260831130434 77 171 0.0 0.0 0.00 0.00 0.00 86 1019.2
20260831125933 77 171 0.0 0.0 0.00 0.00 0.00 85 1019.0
20260831125433 77 157 0.0 1.0 0.00 0.00 0.00 85 1019.1
20260831124929 76 157 1.0 1.0 0.00 0.00 0.00 86 1019.0
20260831124424 76 157 0.0 1.0 0.00 0.00 0.00 87 1019.0